When you browse on this site, cookies collect data to enhance your experience and personalize the content and advertising you see.
Visit our Privacy Policy to learn more. By continuing to use the site, you agree to this use of cookies and data.
  • In Czech Republic
  • List of Countries
  • For 7 days
  • Water Temperature
  • Weather Map
  • Weather Widgets
  • user-avatar
    Login

    Hourly Weather Vanadzor

    Today, 17 October, Thursday

    Time Temperature Precipitation Wind Pressure Humidity
    00:00 +12°C° 0 mm 1 mps 639 mmHg 46%
    01:00 +12°C° 0 mm 1 mps 639 mmHg 46%
    02:00 +11°C° 0 mm 1 mps 639 mmHg 47%
    03:00 +11°C° 0 mm 1 mps 639 mmHg 47%
    04:00 +11°C° 0 mm 1 mps 639 mmHg 47%
    05:00 +10°C° 0 mm 1 mps 639 mmHg 46%
    06:00 +10°C° 0 mm 1 mps 639 mmHg 46%
    07:00 +13°C° 0 mm 1 mps 640 mmHg 41%
    08:00 +14°C° 0 mm 0 mps 641 mmHg 36%
    09:00 +16°C° 0 mm 0 mps 642 mmHg 31%
    10:00 +18°C° 0 mm 0 mps 642 mmHg 29%
    11:00 +21°C° 0 mm 1 mps 642 mmHg 27%
    12:00 +22°C° 0 mm 1 mps 642 mmHg 25%
    13:00 +22°C° 0 mm 1 mps 642 mmHg 26%
    14:00 +21°C° 0 mm 2 mps 641 mmHg 27%
    15:00 +21°C° 0 mm 2 mps 641 mmHg 29%
    16:00 +19°C° 0 mm 1 mps 640 mmHg 38%
    17:00 +16°C° 0 mm 1 mps 640 mmHg 48%
    18:00 +13°C° 0 mm 0 mps 639 mmHg 58%
    19:00 +12°C° 0 mm 0 mps 639 mmHg 60%
    20:00 +12°C° 0 mm 0 mps 639 mmHg 61%
    21:00 +11°C° 0 mm 0 mps 639 mmHg 62%
    22:00 +11°C° 0 mm 0 mps 639 mmHg 62%
    23:00 +11°C° 0 mm 0 mps 639 mmHg 62%

    Tomorrow, 18 October, Friday

    Time Temperature Precipitation Wind Pressure Humidity
    00:00 +10°C° 0 mm 0 mps 639 mmHg 62%
    01:00 +11°C° 0 mm 1 mps 638 mmHg 58%
    02:00 +11°C° 0 mm 1 mps 638 mmHg 55%
    03:00 +11°C° 0 mm 1 mps 638 mmHg 52%
    04:00 +11°C° 0 mm 1 mps 638 mmHg 48%
    05:00 +11°C° 0 mm 1 mps 638 mmHg 44%
    06:00 +11°C° 0 mm 1 mps 638 mmHg 40%
    07:00 +13°C° 0 mm 1 mps 639 mmHg 36%
    08:00 +16°C° 0 mm 1 mps 639 mmHg 31%
    09:00 +19°C° 0 mm 1 mps 640 mmHg 27%
    10:00 +20°C° 0 mm 1 mps 640 mmHg 25%
    11:00 +22°C° 0 mm 1 mps 640 mmHg 23%
    12:00 +23°C° 0 mm 2 mps 641 mmHg 22%
    13:00 +23°C° 0 mm 2 mps 640 mmHg 23%
    14:00 +23°C° 0 mm 2 mps 640 mmHg 23%
    15:00 +23°C° 0 mm 2 mps 639 mmHg 24%
    16:00 +21°C° 0 mm 1 mps 638 mmHg 33%
    17:00 +18°C° 0 mm 1 mps 638 mmHg 42%
    18:00 +14°C° 0 mm 0 mps 637 mmHg 50%
    19:00 +13°C° 0 mm 0 mps 637 mmHg 51%
    20:00 +13°C° 0 mm 0 mps 637 mmHg 53%
    21:00 +13°C° 0 mm 0 mps 637 mmHg 54%
    22:00 +12°C° 0 mm 0 mps 637 mmHg 54%
    23:00 +13°C° 0 mm 1 mps 637 mmHg 54%

    Day after tomorrow, 19 October, Saturday

    Time Temperature Precipitation Wind Pressure Humidity
    00:00 +13°C° 0 mm 1 mps 637 mmHg 54%
    01:00 +13°C° 0 mm 1 mps 637 mmHg 53%
    02:00 +12°C° 0 mm 1 mps 637 mmHg 53%
    03:00 +12°C° 0 mm 1 mps 637 mmHg 53%
    04:00 +12°C° 0 mm 1 mps 637 mmHg 52%
    05:00 +12°C° 0 mm 1 mps 637 mmHg 52%
    06:00 +12°C° 0 mm 1 mps 637 mmHg 51%
    07:00 +14°C° 0 mm 1 mps 638 mmHg 46%
    08:00 +16°C° 0 mm 1 mps 639 mmHg 42%
    09:00 +19°C° 0 mm 1 mps 639 mmHg 37%
    10:00 +20°C° 0 mm 1 mps 639 mmHg 35%
    11:00 +21°C° 0 mm 1 mps 640 mmHg 34%
    12:00 +23°C° 0 mm 2 mps 640 mmHg 32%
    13:00 +22°C° 0 mm 1 mps 639 mmHg 33%
    14:00 +22°C° 0 mm 1 mps 639 mmHg 34%
    15:00 +22°C° 0 mm 1 mps 639 mmHg 35%
    16:00 +20°C° 0.1 mm 1 mps 638 mmHg 43%
    17:00 +18°C° 0.1 mm 1 mps 638 mmHg 51%
    18:00 +14°C° 0.1 mm 0 mps 637 mmHg 59%
    19:00 +14°C° 0.4 mm 0 mps 637 mmHg 64%
    20:00 +13°C° 0.4 mm 0 mps 638 mmHg 69%
    21:00 +12°C° 0.4 mm 0 mps 638 mmHg 74%
    22:00 +12°C° 0 mm 0 mps 638 mmHg 75%
    23:00 +11°C° 0 mm 0 mps 638 mmHg 75%

    20 October, Sunday

    Time Temperature Precipitation Wind Pressure Humidity
    00:00 +11°C° 0 mm 0 mps 638 mmHg 76%
    01:00 +11°C° 0 mm 0 mps 638 mmHg 77%
    02:00 +10°C° 0 mm 0 mps 637 mmHg 78%
    03:00 +11°C° 0 mm 1 mps 637 mmHg 80%
    04:00 +11°C° 0 mm 1 mps 637 mmHg 81%
    05:00 +10°C° 0 mm 1 mps 637 mmHg 82%
    06:00 +10°C° 0 mm 1 mps 637 mmHg 83%
    07:00 +12°C° 0 mm 1 mps 638 mmHg 77%
    08:00 +13°C° 0 mm 1 mps 639 mmHg 71%
    09:00 +15°C° 0 mm 1 mps 639 mmHg 65%
    10:00 +16°C° 0.1 mm 1 mps 639 mmHg 62%
    11:00 +17°C° 0.1 mm 2 mps 639 mmHg 59%
    12:00 +18°C° 0.1 mm 2 mps 639 mmHg 55%
    13:00 +18°C° 0.7 mm 2 mps 639 mmHg 58%
    14:00 +17°C° 0.7 mm 2 mps 639 mmHg 61%
    15:00 +17°C° 0.7 mm 2 mps 638 mmHg 64%
    16:00 +16°C° 0.6 mm 2 mps 638 mmHg 71%
    17:00 +14°C° 0.6 mm 2 mps 638 mmHg 79%
    18:00 +13°C° 0.6 mm 1 mps 638 mmHg 86%
    19:00 +13°C° 0.1 mm 1 mps 638 mmHg 88%
    20:00 +13°C° 0.1 mm 1 mps 638 mmHg 89%
    21:00 +12°C° 0.1 mm 1 mps 638 mmHg 91%
    22:00 +12°C° 0 mm 1 mps 638 mmHg 91%
    23:00 +12°C° 0 mm 1 mps 638 mmHg 91%

    21 October, Monday

    Time Temperature Precipitation Wind Pressure Humidity
    00:00 +12°C° 0 mm 1 mps 638 mmHg 91%
    01:00 +12°C° 0 mm 1 mps 638 mmHg 92%
    02:00 +11°C° 0 mm 1 mps 638 mmHg 92%
    03:00 +11°C° 0 mm 1 mps 638 mmHg 92%
    04:00 +11°C° 0 mm 1 mps 638 mmHg 93%
    05:00 +11°C° 0 mm 1 mps 638 mmHg 93%
    06:00 +11°C° 0 mm 1 mps 638 mmHg 94%
    07:00 +11°C° 0 mm 1 mps 638 mmHg 89%
    08:00 +12°C° 0 mm 1 mps 638 mmHg 85%
    09:00 +13°C° 0 mm 1 mps 639 mmHg 80%
    10:00 +14°C° 0.1 mm 2 mps 639 mmHg 77%
    11:00 +15°C° 0.1 mm 2 mps 639 mmHg 73%
    12:00 +16°C° 0.1 mm 2 mps 639 mmHg 69%
    13:00 +15°C° 0.4 mm 2 mps 638 mmHg 70%
    14:00 +15°C° 0.4 mm 2 mps 638 mmHg 72%
    15:00 +15°C° 0.4 mm 2 mps 637 mmHg 73%
    16:00 +14°C° 0.2 mm 2 mps 637 mmHg 77%
    17:00 +13°C° 0.2 mm 2 mps 637 mmHg 82%
    18:00 +12°C° 0.2 mm 1 mps 637 mmHg 86%
    19:00 +12°C° 0 mm 1 mps 637 mmHg 87%
    20:00 +11°C° 0 mm 1 mps 637 mmHg 88%
    21:00 +11°C° 0 mm 1 mps 637 mmHg 89%
    22:00 +11°C° 0 mm 1 mps 637 mmHg 89%
    23:00 +10°C° 0 mm 1 mps 637 mmHg 89%

    22 October, Tuesday

    Time Temperature Precipitation Wind Pressure Humidity
    00:00 +10°C° 0 mm 1 mps 637 mmHg 89%
    01:00 +10°C° 0 mm 1 mps 637 mmHg 90%
    02:00 +10°C° 0 mm 1 mps 637 mmHg 90%
    03:00 +10°C° 0 mm 1 mps 637 mmHg 90%
    04:00 +10°C° 0 mm 1 mps 637 mmHg 90%
    05:00 +9°C° 0 mm 1 mps 637 mmHg 91%
    06:00 +9°C° 0 mm 1 mps 637 mmHg 91%
    07:00 +10°C° 0 mm 1 mps 638 mmHg 85%
    08:00 +11°C° 0 mm 1 mps 638 mmHg 79%
    09:00 +13°C° 0 mm 1 mps 638 mmHg 74%
    10:00 +14°C° 0.1 mm 1 mps 638 mmHg 68%
    11:00 +15°C° 0.1 mm 2 mps 639 mmHg 62%
    12:00 +17°C° 0.1 mm 2 mps 639 mmHg 56%
    13:00 +17°C° 0.1 mm 2 mps 639 mmHg 56%
    14:00 +17°C° 0.1 mm 2 mps 638 mmHg 56%
    15:00 +17°C° 0.1 mm 2 mps 638 mmHg 56%
    16:00 +15°C° 0.1 mm 2 mps 637 mmHg 64%
    17:00 +13°C° 0.1 mm 1 mps 637 mmHg 71%
    18:00 +11°C° 0.1 mm 1 mps 636 mmHg 78%
    19:00 +11°C° 0 mm 1 mps 636 mmHg 80%
    20:00 +10°C° 0 mm 1 mps 636 mmHg 83%
    21:00 +10°C° 0 mm 1 mps 636 mmHg 85%
    22:00 +9°C° 0 mm 0 mps 636 mmHg 85%
    23:00 +8°C° 0 mm 0 mps 636 mmHg 86%
    Show more